Weather History for KBEA - December, 2012

Change the Weather History Date:

Sunday, December 9, 2012

  Actual Average (KCRP) Record (KCRP)
Temperature  
Mean Temperature 73 °F 59 °F  
Max Temperature 82 °F 69 °F 87 °F (2004)
Min Temperature 64 °F 50 °F 29 °F (1978)
Degree Days  
Heating Degree Days 0 7  
Month to date heating degree days 59  
Since 1 July heating degree days 160  
Cooling Degree Days 8 2  
Month to date cooling degree days 18  
Year to date cooling degree days 3493  
Growing Degree Days 23 (Base 50)    
Moisture  
Dew Point 68 °F    
Average Humidity 85    
Maximum Humidity 100    
Minimum Humidity 54    
Precipitation  
Precipitation 0.00 in 0.06 in 1.06 in (1949)
Month to date precipitation 0.47  
Year to date precipitation 30.40  
Snow  
Snow 0.00 in - - ()
Month to date snowfall  
Since 1 July snowfall  
Snow Depth -    
Sea Level Pressure  
Sea Level Pressure 29.83 in    
Wind  
Wind Speed 7 mph (SSE)    
Max Wind Speed 17 mph    
Max Gust Speed 22 mph    
Visibility 8 miles    
Events Fog    
T = Trace of Precipitation, MM = Missing Value Source: NWS Daily Summary

Daily Weather History Graph

Daily Weather History Graph

Search for Another Location

Airport or City:

Trip Planner

Search our weather history database for the weather conditions in past years. The results will help you decide how hot, cold, wet, or windy it might be!

Date:

Astronomy

Dec. 09, 2012 Rise Set
Actual Time 7:12 AM CST 5:35 PM CST
Civil Twilight 6:46 AM CST 6:01 PM CST
Nautical Twilight 6:17 AM CST 6:30 PM CST
Astronomical Twilight 5:48 AM CST 6:59 PM CST
Moon 3:01 AM CST (12/9) 2:30 PM CST (12/9)
Length of Visible Light 11h 14m
Length of Day
10h 23m
Waning Crescent, 18% of the Moon is Illuminated
Dec 9
Waning Crescent
Dec 13
New
Dec 19
First Quarter
Dec 28
Full
Jan 4
Last Quarter

Hourly Weather History & Observations

Time (CST) Temp. Heat Index Dew Point Humidity Pressure Visibility Wind Dir Wind Speed Gust Speed Precip Events Conditions
12:15 AM 69.8 °F - 68.0 °F 94% 29.85 in 10.0 mi South 8.1 mph - N/A   Clear
12:35 AM 69.8 °F - 68.0 °F 94% 29.85 in 10.0 mi South 8.1 mph - N/A   Clear
12:55 AM 68.0 °F - 68.0 °F 100% 29.85 in 10.0 mi South 8.1 mph - N/A   Clear
1:15 AM 68.0 °F - 68.0 °F 100% 29.85 in 10.0 mi South 5.8 mph - N/A   Clear
1:35 AM 68.0 °F - 68.0 °F 100% 29.84 in 7.0 mi SSE 6.9 mph - N/A   Clear
1:55 AM 68.0 °F - 68.0 °F 100% 29.84 in 5.0 mi SSE 4.6 mph - N/A   Clear
2:15 AM 66.2 °F - 66.2 °F 100% 29.83 in 4.0 mi SSE 4.6 mph - N/A   Clear
2:55 AM 66.2 °F - 66.2 °F 100% 29.83 in 0.2 mi Calm Calm - N/A Fog Fog
3:15 AM 64.4 °F - 64.4 °F 100% 29.84 in 0.2 mi Calm Calm - N/A Fog Fog
3:35 AM 64.4 °F - 64.4 °F 100% 29.84 in 0.2 mi Calm Calm - N/A Fog Fog
3:55 AM 64.4 °F - 64.4 °F 100% 29.84 in 0.5 mi NNE 3.5 mph - N/A Fog Fog
4:15 AM 64.4 °F - 64.4 °F 100% 29.84 in 1.8 mi NE 3.5 mph - N/A   Overcast
4:35 AM 66.2 °F - 66.2 °F 100% 29.84 in 3.0 mi Calm Calm - N/A   Overcast
4:55 AM 66.2 °F - 66.2 °F 100% 29.84 in 3.0 mi Calm Calm - N/A   Overcast
5:15 AM 68.0 °F - 68.0 °F 100% 29.84 in 2.0 mi Calm Calm - N/A   Overcast
5:35 AM 68.0 °F - 68.0 °F 100% 29.85 in 2.5 mi Calm Calm - N/A   Overcast
5:55 AM 68.0 °F - 68.0 °F 100% 29.85 in 2.5 mi Calm Calm - N/A   Overcast
6:15 AM 68.0 °F - 68.0 °F 100% 29.86 in 4.0 mi Calm Calm - N/A   Overcast
6:35 AM 68.0 °F - 68.0 °F 100% 29.87 in 4.0 mi Calm Calm - N/A   Overcast
6:55 AM 68.0 °F - 68.0 °F 100% 29.87 in 4.0 mi Calm Calm - N/A   Overcast
7:15 AM 68.0 °F - 68.0 °F 100% 29.88 in 4.0 mi Calm Calm - N/A   Overcast
7:35 AM 68.0 °F - 68.0 °F 100% 29.88 in 4.0 mi Calm Calm - N/A   Overcast
7:55 AM 68.0 °F - 68.0 °F 100% 29.88 in 4.0 mi Calm Calm - N/A   Overcast
8:15 AM 68.0 °F - 68.0 °F 100% 29.89 in 4.0 mi Calm Calm - N/A   Overcast
8:35 AM 69.8 °F - 69.8 °F 100% 29.89 in 5.0 mi ESE 4.6 mph - N/A   Overcast
8:55 AM 69.8 °F - 69.8 °F 100% 29.90 in 7.0 mi East 4.6 mph - N/A   Mostly Cloudy
9:15 AM 71.6 °F - 69.8 °F 94% 29.90 in 7.0 mi Calm Calm - N/A   Mostly Cloudy
9:35 AM 71.6 °F - 71.6 °F 100% 29.91 in 7.0 mi SSE 4.6 mph - N/A   Mostly Cloudy
9:55 AM 73.4 °F - 71.6 °F 94% 29.92 in 10.0 mi SSE 6.9 mph - N/A   Overcast
10:15 AM 73.4 °F - 69.8 °F 88% 29.91 in 10.0 mi South 8.1 mph - N/A   Mostly Cloudy
10:35 AM 77.0 °F - 69.8 °F 78% 29.90 in 10.0 mi South 10.4 mph - N/A   Mostly Cloudy
10:55 AM 77.0 °F - 69.8 °F 78% 29.90 in 10.0 mi South 11.5 mph - N/A   Mostly Cloudy
11:15 AM 77.0 °F - 69.8 °F 78% 29.89 in 10.0 mi South 16.1 mph 20.7 mph N/A   Mostly Cloudy
11:35 AM 78.8 °F - 69.8 °F 74% 29.88 in 10.0 mi South 13.8 mph - N/A   Mostly Cloudy
12:15 PM 78.8 °F - 68.0 °F 69% 29.85 in 10.0 mi South 16.1 mph - N/A   Scattered Clouds
12:35 PM 78.8 °F - 68.0 °F 69% 29.84 in 10.0 mi SSW 12.7 mph - N/A   Mostly Cloudy
12:55 PM 80.6 °F 83.2 °F 68.0 °F 65% 29.82 in 10.0 mi South 13.8 mph - N/A   Scattered Clouds
1:15 PM 80.6 °F 83.2 °F 68.0 °F 65% 29.81 in 10.0 mi SSW 10.4 mph - N/A   Scattered Clouds
1:35 PM 82.4 °F 85.4 °F 68.0 °F 62% 29.79 in 10.0 mi SSW 11.5 mph 16.1 mph N/A   Scattered Clouds
1:55 PM 82.4 °F 84.6 °F 66.2 °F 58% 29.78 in 10.0 mi South 15.0 mph 20.7 mph N/A   Mostly Cloudy
2:15 PM 82.4 °F 83.9 °F 64.4 °F 54% 29.77 in 10.0 mi South 15.0 mph 19.6 mph N/A   Scattered Clouds
2:35 PM 82.4 °F 83.9 °F 64.4 °F 54% 29.77 in 10.0 mi South 15.0 mph 18.4 mph N/A   Clear
2:55 PM 82.4 °F 83.9 °F 64.4 °F 54% 29.77 in 10.0 mi South 13.8 mph 21.9 mph N/A   Scattered Clouds
3:15 PM 82.4 °F 83.9 °F 64.4 °F 54% 29.77 in 10.0 mi South 17.3 mph - N/A   Scattered Clouds
3:35 PM 82.4 °F 83.9 °F 64.4 °F 54% 29.77 in 10.0 mi South 15.0 mph - N/A   Scattered Clouds
3:55 PM 82.4 °F 83.9 °F 64.4 °F 54% 29.77 in 10.0 mi South 11.5 mph 20.7 mph N/A   Scattered Clouds
4:15 PM 80.6 °F 82.7 °F 66.2 °F 61% 29.77 in 10.0 mi SSE 15.0 mph 18.4 mph N/A   Mostly Cloudy
4:35 PM 80.6 °F 83.2 °F 68.0 °F 65% 29.77 in 10.0 mi SSE 10.4 mph 16.1 mph N/A   Mostly Cloudy
4:55 PM 78.8 °F - 66.2 °F 65% 29.77 in 10.0 mi SSE 12.7 mph 18.4 mph N/A   Scattered Clouds
5:15 PM 78.8 °F - 68.0 °F 69% 29.77 in 10.0 mi SE 13.8 mph 18.4 mph N/A   Scattered Clouds
5:35 PM 77.0 °F - 68.0 °F 74% 29.78 in 10.0 mi SE 12.7 mph - N/A   Overcast
5:55 PM 77.0 °F - 66.2 °F 69% 29.78 in 10.0 mi SSE 13.8 mph - N/A   Mostly Cloudy
6:15 PM 77.0 °F - 66.2 °F 69% 29.79 in 10.0 mi SSE 9.2 mph - N/A   Scattered Clouds
6:35 PM 75.2 °F - 68.0 °F 78% 29.78 in 10.0 mi SSE 10.4 mph - N/A   Scattered Clouds
6:55 PM 75.2 °F - 68.0 °F 78% 29.79 in 10.0 mi SSE 9.2 mph 16.1 mph N/A   Clear
7:15 PM 73.4 °F - 68.0 °F 83% 29.80 in 10.0 mi SSE 6.9 mph - N/A   Clear
7:35 PM 73.4 °F - 68.0 °F 83% 29.80 in 10.0 mi SE 8.1 mph - N/A   Clear
7:55 PM 73.4 °F - 68.0 °F 83% 29.80 in 10.0 mi SSE 6.9 mph - N/A   Clear
8:15 PM 73.4 °F - 68.0 °F 83% 29.81 in 10.0 mi SSE 9.2 mph - N/A   Clear
8:35 PM 73.4 °F - 68.0 °F 83% 29.81 in 10.0 mi SSE 8.1 mph - N/A   Clear
8:55 PM 73.4 °F - 68.0 °F 83% 29.81 in 10.0 mi SSE 5.8 mph - N/A   Clear
9:15 PM 73.4 °F - 68.0 °F 83% 29.81 in 10.0 mi SSE 6.9 mph - N/A   Clear
9:35 PM 71.6 °F - 68.0 °F 88% 29.82 in 10.0 mi SSE 6.9 mph - N/A   Clear
9:55 PM 71.6 °F - 68.0 °F 88% 29.82 in 10.0 mi SSE 9.2 mph - N/A   Scattered Clouds
10:35 PM 71.6 °F - 69.8 °F 94% 29.82 in 10.0 mi SSE 6.9 mph - N/A   Scattered Clouds
10:55 PM 71.6 °F - 69.8 °F 94% 29.83 in 10.0 mi SSE 5.8 mph - N/A   Scattered Clouds
11:15 PM 71.6 °F - 69.8 °F 94% 29.84 in 10.0 mi South 4.6 mph - N/A   Clear
11:35 PM 69.8 °F - 69.8 °F 100% 29.82 in 10.0 mi SE 5.8 mph - N/A   Clear
11:55 PM 69.8 °F - 68.0 °F 94% 29.82 in 10.0 mi SSE 4.6 mph - N/A   Clear